SCP
0 0 -0 -0 -0 -0 -0 0 0 0 0 0 0 0 0 0 0 0 0 -0 0 -0 -0 -0 -0 -0 -0 -0 -0 -0 -0 -0 -0 -0 -0 -0 -0 -0 -0 -0 0 0 0
0 -0 -0 -0 -0 -0 0 0 0 0 0 0 0 0 0 0 0 0 0 0 0 -0 -0 -0 -0 -0 -0 -0 -0 -0 -0 -0 0 0 -0 -0 0 -0 -0 -0 0 0 0
0 0 0 -0 -0 -0 0 0 0 0 0 0 0 0 0 0 0 0 0 0 0 -0 -0 -0 -0 -0 -0 -0 -0 -0 -0 -0 0 0 0 0 -0 0 0 0 0 0 0
0 0 0 0 0 -0 0 0 0 0 0 0 0 0 0 0 0 0 0 0 0 -0 -0 -0 -0 -0 -0 -0 -0 -0 -0 -0 -0 -0 -0 -0 0 0 0 0 0 0 0
0 0 0 0 0 0 0 0 0 0 0 0 0 0 0 0 0 0 0 0 0 0 -0 -0 -0 -0 -0 -0 -0 -0 -0 -0 -0 -0 -0 0 0 0 0 0 0 0 0
0 0 0 0 0 0 0 0 0 0 0 0 0 0 0 0 0 0 0 0 0 0 0 0 0 0 0 0 0 0 -0 -0 -0 -0 -0 0 0 0 0 0 0 0 0
0 0 0 0 0 0 0 0 0 0 0 0 0 0 0 0 0 0 0 0 0 0 0 0 0 0 0 0 0 0 0 -0 0 0 0 0 0 0 0 0 0 0 0
0 0 0 0 0 0 0 0 0 0 0 0 0 0 0 0 0 0 0 0 0 0 0 0 0 0 0 0 0 0 0 0 0 -0 0 0 0 0 0 0 0 0 0
0 0 0 0 0 0 0 0 0 0 0 0 0 0 0 0 0 0 0 0 0 0 0 0 0 0 0 0 0 0 0 -0 -0 -0 0 0 0 0 0 0 0 0 0
0 0 0 0 0 0 0 0 0 0 0 0 0 0 0 0 0 0 0 0 0 0 0 0 0 0 0 0 0 0 -0 -0 0 -0 0 0 0 0 0 0 0 0 0
1 0 0 0 0 0 0 0 0 0 0 0 0 0 0 0 0 0 0 0 0 0 0 0 0 0 0 0 0 0 0 0 0 0 0 0 0 0 0 0 0 0 0
1 0 0 0 0 0 0 0 0 0 0 0 0 0 0 0 0 0 0 0 0 0 0 0 -0 0 0 0 0 0 0 0 0 0 0 0 0 0 0 0 0 0 0
1 0 0 0 0 0 0 0 0 0 0 0 0 0 0 0 0 0 0 0 0 0 0 0 0 0 0 0 0 0 0 0 0 0 0 0 0 0 0 0 0 0 0
1 1 0 0 0 0 0 0 0 0 0 0 0 0 0 0 0 0 0 0 0 0 0 0 0 0 0 0 0 0 0 0 0 0 0 0 0 0 0 0 0 0 0
1 1 1 0 0 0 0 0 0 0 0 0 0 0 0 0 0 0 0 0 0 0 0 0 0 0 0 0 0 0 0 0 0 0 0 0 0 0 0 0 0 0 0
1 1 1 0 0 0 0 0 0 0 0 0 0 0 0 0 0 0 0 0 0 0 0 0 0 0 0 0 0 0 0 0 0 0 0 0 0 0 0 0 0 0 0
1 1 0 0 0 0 0 0 0 0 0 0 0 0 0 0 0 0 0 0 0 0 0 0 0 0 0 0 0 0 0 0 0 0 0 0 0 0 0 0 0 0 0
0 1 0 0 0 0 0 0 0 0 0 0 0 0 0 0 0 0 0 0 0 0 0 0 0 0 0 0 0 0 0 0 0 0 0 0 0 0 0 0 0 0 0
0 0 0 0 0 0 0 0 0 0 0 0 0 0 0 0 0 0 0 0 0 0 0 0 0 0 0 0 0 0 0 0 0 0 0 0 0 0 0 0 0 0 0
0 0 0 0 0 0 0 0 0 0 0 0 0 0 0 0 0 0 0 0 0 0 0 0 0 0 0 0 0 0 0 0 0 0 0 0 0 0 0 0 0 0 0
0 0 0 0 0 0 0 0 0 0 0 0 0 0 0 0 0 0 0 0 0 0 0 0 0 0 0 0 0 0 0 0 0 0 0 0 0 0 0 0 0 0 0
0 0 0 0 0 0 0 0 0 0 0 0 0 0 0 0 0 0 0 0 0 0 0 0 0 0 0 0 0 0 0 0 0 0 0 0 0 0 0 0 0 0 0
0 0 0 0 0 0 0 0 0 0 0 0 0 0 0 0 0 0 0 0 0 0 0 0 0 0 0 0 0 0 0 0 0 0 0 0 0 0 0 0 0 0 0
0 0 0 0 0 0 0 0 0 0 0 0 0 0 0 0 0 0 0 0 0 0 0 0 0 0 0 0 0 0 0 0 0 0 0 0 0 0 0 0 0 0 0
0 0 0 0 0 0 0 0 0 0 0 0 0 0 0 0 0 0 0 0 0 0 0 0 0 0 0 0 0 0 0 0 0 0 0 0 0 0 0 0 0 0 0
0 0 0 0 0 0 0 0 0 0 0 0 0 0 0 0 0 0 0 0 0 0 0 0 0 0 0 0 0 0 0 0 0 0 0 0 0 0 0 0 0 0 0
Wind_Speed_500mb
29 41 47 45 41 40 38 34 30 25 26 32 37 34 28 23 18 15 13 13 10 8 10 22 25 25 27 26 26 25 24 23 23 23 24 25 20 17 14 15 17 16 15
25 39 47 45 39 39 39 35 31 27 26 31 34 28 23 18 13 13 13 15 15 13 26 27 25 26 25 24 22 21 20 20 19 18 20 23 21 16 17 17 19 20 19
28 40 48 45 39 37 38 37 33 30 27 28 30 22 22 14 10 13 15 18 18 25 26 25 23 23 21 20 19 18 18 18 18 19 16 17 19 16 17 20 20 18 17
24 43 51 47 40 36 35 36 33 31 29 28 27 19 15 12 10 13 16 18 22 24 24 23 21 19 17 16 15 15 15 15 15 14 12 10 14 14 14 15 17 16 15
29 44 51 49 42 35 34 37 35 31 30 31 23 21 14 9 10 16 18 22 24 24 23 21 18 16 14 13 13 12 13 14 14 14 17 4 10 11 9 9 11 13 15
35 46 52 49 42 36 35 40 38 34 35 35 25 14 9 7 12 19 21 22 20 20 20 17 14 12 11 11 11 11 12 14 15 13 11 8 9 9 7 7 8 8 12
40 46 54 50 43 37 40 44 39 37 39 34 23 15 13 11 14 20 21 22 20 16 16 14 11 10 9 9 9 11 13 12 11 12 8 9 11 9 8 13 9 8 10
36 43 57 53 44 40 46 46 43 39 39 28 22 19 17 16 19 25 21 21 17 14 13 10 8 7 6 6 8 11 12 9 6 9 8 10 12 9 8 10 14 11 9
36 36 56 55 47 44 48 47 47 42 32 28 26 22 21 22 24 23 23 20 16 14 12 9 6 4 5 5 6 8 9 8 6 7 8 12 13 11 9 6 9 11 8
42 41 47 57 53 51 51 48 46 42 37 32 28 24 23 27 28 27 24 21 18 14 11 8 6 5 4 3 5 7 7 7 5 6 8 10 12 10 10 8 6 9 12
46 48 40 56 56 54 52 51 46 42 39 35 31 26 26 24 23 23 21 20 17 13 11 10 8 6 4 5 5 7 5 4 2 2 3 5 10 13 13 11 10 11 13
43 44 37 50 56 53 54 53 50 45 41 37 32 28 28 25 22 21 21 20 18 15 13 11 10 8 9 10 10 9 8 6 1 3 3 4 10 14 16 14 11 12 12
45 42 46 50 59 55 55 55 53 49 42 38 32 27 26 26 25 20 21 21 20 18 16 15 13 12 13 13 14 12 14 9 5 6 8 8 10 14 16 14 10 14 11
54 52 51 55 56 56 53 54 53 51 44 40 34 28 32 29 27 25 20 20 20 19 19 17 15 13 14 11 13 15 15 14 13 10 13 14 13 14 15 15 11 11 9
59 57 51 55 58 59 56 49 50 52 49 40 39 32 36 33 35 30 25 27 23 19 19 16 15 13 12 14 15 16 17 17 15 15 18 16 15 13 13 13 11 7 11
49 62 53 60 70 63 60 51 45 46 46 44 41 35 35 38 39 33 29 26 24 20 18 14 15 15 13 15 15 16 19 19 18 16 17 17 18 15 13 12 10 6 16
44 65 64 65 65 65 64 53 45 45 44 43 37 33 33 35 39 36 31 29 25 24 22 20 19 19 20 20 21 20 18 20 24 22 22 26 24 21 17 13 12 9 24
43 60 75 72 71 70 65 57 51 46 49 45 43 39 36 33 32 31 30 29 27 24 23 22 23 22 22 22 22 25 25 26 24 21 26 28 34 25 22 16 14 17 21
40 50 68 79 77 71 59 62 55 51 47 48 38 37 36 32 35 37 32 29 26 25 23 24 28 25 27 28 28 28 24 27 29 31 38 37 33 29 27 20 19 21 20
32 49 65 73 79 69 62 59 55 57 51 41 38 37 34 33 32 33 32 29 28 25 28 32 31 28 30 24 24 28 27 32 37 41 45 41 37 33 30 21 25 25 25
35 42 53 78 68 66 61 59 68 70 63 51 42 37 34 31 29 28 32 33 33 35 30 34 34 35 33 27 29 36 37 44 48 49 44 42 38 32 30 24 26 27 30
35 42 53 70 79 75 70 62 63 66 67 58 51 45 41 39 37 33 29 29 32 34 35 35 39 39 36 31 41 44 44 37 44 48 49 37 34 35 32 28 27 29 34
13 13 21 79 70 68 69 56 52 49 44 55 57 53 49 43 45 40 36 34 34 35 40 41 41 42 45 46 48 48 25 28 39 37 41 35 35 37 35 32 32 33 37
38 31 12 39 68 66 62 58 51 50 57 52 53 52 46 47 45 42 41 41 42 39 39 39 41 43 46 45 54 62 67 51 16 11 18 20 23 24 29 32 35 37 39
59 53 47 47 49 60 52 55 49 41 41 40 49 47 51 41 34 33 33 33 32 37 36 35 28 10 2 3 6 4 9 15 14 19 4 15 19 22 23 28 34 23 28
59 65 51 65 63 49 45 45 38 29 35 34 37 38 39 37 36 36 31 30 25 18 22 27 18 22 18 13 10 13 4 6 4 12 6 16 19 22 28 28 28 22 28
Wind_Direction_500mb
174 180 171 171 168 167 166 164 161 155 149 149 146 147 148 146 149 162 180 183 164 161 131 122 110 111 111 110 108 105 100 99 98 91 87 80 70 78 74 62 63 63 60
183 182 175 172 170 169 166 167 163 156 153 155 158 157 158 155 160 162 161 158 152 144 123 117 112 114 109 107 106 104 100 97 95 91 87 76 65 67 75 73 69 65 65
187 181 177 173 171 169 168 167 164 160 161 160 161 164 160 157 156 155 151 150 147 132 128 122 119 113 110 108 107 107 105 102 98 87 75 75 66 57 69 70 73 69 63
191 183 177 173 173 171 169 169 167 165 167 163 163 159 159 156 152 155 144 149 141 140 135 129 124 120 116 111 106 102 103 108 106 104 87 59 66 56 67 69 71 63 56
198 185 179 175 174 175 171 172 170 167 172 167 173 165 171 165 156 156 147 135 143 140 138 131 128 123 117 110 106 104 107 113 112 104 90 95 53 53 57 50 50 49 40
191 185 181 179 176 177 177 175 171 170 171 171 182 187 208 200 171 164 164 155 147 146 134 134 131 125 119 114 112 108 112 116 108 91 68 66 48 38 29 12 19 29 14
187 182 181 182 180 179 175 171 174 178 176 177 182 210 224 217 179 157 160 157 153 150 141 143 138 130 121 114 102 99 112 117 104 89 59 64 45 28 27 5 340 2 354
205 182 183 181 183 179 173 171 176 181 180 188 201 221 224 212 183 164 165 166 165 156 156 154 147 132 118 111 112 110 113 122 117 84 44 55 34 17 359 6 357 345 348
213 199 182 181 181 180 176 177 178 181 193 204 214 220 221 199 172 175 173 178 181 180 177 176 166 144 148 134 112 117 121 130 113 74 70 40 21 10 1 17 339 347 346
209 216 197 185 182 182 181 183 184 192 198 208 216 212 214 192 181 182 186 189 190 195 195 197 192 189 174 145 138 137 138 137 134 106 68 32 8 356 349 338 315 331 337
206 209 205 194 187 185 186 186 192 198 204 209 211 210 204 201 198 199 195 193 196 203 211 212 209 205 197 193 162 158 171 175 166 102 62 4 355 355 347 341 325 323 324
213 205 205 207 195 190 192 194 196 201 205 211 209 210 204 201 198 211 209 205 208 211 217 222 220 214 215 210 198 181 183 210 206 233 286 323 349 346 340 335 324 323 325
236 226 232 207 203 197 197 198 201 201 206 209 214 211 201 195 200 203 203 207 212 218 223 225 222 221 223 223 223 209 213 226 217 256 286 301 315 328 330 325 311 299 314
235 234 230 206 207 208 205 206 209 207 208 212 216 214 197 190 205 217 221 224 224 228 227 225 229 229 238 239 237 238 241 241 240 248 262 281 291 308 326 317 306 302 246
230 230 229 212 205 208 207 209 216 218 210 213 225 217 198 198 205 226 237 225 224 223 224 228 238 249 248 243 244 242 238 240 236 245 257 267 280 290 307 301 293 286 226
237 222 225 215 205 203 207 208 210 215 214 220 224 223 210 207 215 224 230 231 234 230 228 235 249 249 252 249 248 257 259 252 247 257 260 273 275 274 288 272 266 242 187
250 231 217 210 212 203 204 205 213 211 217 216 218 225 226 217 215 223 225 227 229 228 227 232 243 246 255 262 264 265 262 258 256 245 253 258 272 267 278 264 251 222 198
248 238 219 211 202 201 205 208 211 203 217 212 224 237 227 223 219 225 232 230 227 225 221 231 236 241 246 246 253 255 257 261 256 249 246 252 264 265 270 253 221 206 217
257 243 216 211 204 203 210 213 213 215 208 222 224 233 231 224 221 228 234 234 228 221 224 248 248 248 251 255 265 264 253 255 254 247 247 248 247 256 258 240 216 210 234
255 246 222 198 208 209 208 207 212 204 206 205 219 224 231 231 232 233 234 232 224 220 235 241 252 251 259 264 259 262 255 248 244 245 244 248 249 246 244 243 211 221 241
264 250 239 208 207 207 210 205 201 202 206 205 213 220 225 238 244 245 245 241 234 232 237 243 251 256 252 255 261 269 260 255 248 247 248 247 249 249 238 235 219 228 242
292 246 206 196 204 209 216 210 207 203 208 213 214 228 226 230 240 243 254 253 247 242 242 247 253 255 252 259 266 269 262 250 239 242 246 234 247 233 221 221 224 234 236
355 187 199 188 199 201 209 209 206 205 208 220 222 222 225 233 239 236 248 245 247 236 243 251 257 255 261 261 257 256 248 234 219 207 207 232 211 217 218 221 226 242 228
46 67 55 189 192 201 205 205 205 204 204 214 217 222 230 233 236 232 231 241 246 248 250 255 258 259 265 277 274 268 257 242 240 140 169 197 218 209 225 228 237 232 250
55 62 49 98 158 194 197 194 196 204 218 220 223 227 234 222 226 233 235 235 246 250 250 256 256 190 35 88 311 111 139 31 52 86 278 257 232 233 235 246 253 229 233
62 60 56 63 81 95 144 162 185 191 189 207 213 213 214 215 228 227 229 237 243 211 212 238 233 249 271 291 296 264 318 115 106 106 314 250 249 246 249 243 250 255 269
Wind_Speed_850mb
29 41 47 45 41 40 38 34 30 25 26 32 37 34 28 23 18 15 13 13 10 8 10 22 25 25 27 26 26 25 24 23 23 23 24 25 20 17 14 15 17 16 15
25 39 47 45 39 39 39 35 31 27 26 31 34 28 23 18 13 13 13 15 15 13 26 27 25 26 25 24 22 21 20 20 19 18 20 23 21 16 17 17 19 20 19
28 40 48 45 39 37 38 37 33 30 27 28 30 22 22 14 10 13 15 18 18 25 26 25 23 23 21 20 19 18 18 18 18 19 16 17 19 16 17 20 20 18 17
24 43 51 47 40 36 35 36 33 31 29 28 27 19 15 12 10 13 16 18 22 24 24 23 21 19 17 16 15 15 15 15 15 14 12 10 14 14 14 15 17 16 15
29 44 51 49 42 35 34 37 35 31 30 31 23 21 14 9 10 16 18 22 24 24 23 21 18 16 14 13 13 12 13 14 14 14 17 4 10 11 9 9 11 13 15
35 46 52 49 42 36 35 40 38 34 35 35 25 14 9 7 12 19 21 22 20 20 20 17 14 12 11 11 11 11 12 14 15 13 11 8 9 9 7 7 8 8 12
40 46 54 50 43 37 40 44 39 37 39 34 23 15 13 11 14 20 21 22 20 16 16 14 11 10 9 9 9 11 13 12 11 12 8 9 11 9 8 13 9 8 10
36 43 57 53 44 40 46 46 43 39 39 28 22 19 17 16 19 25 21 21 17 14 13 10 8 7 6 6 8 11 12 9 6 9 8 10 12 9 8 10 14 11 9
36 36 56 55 47 44 48 47 47 42 32 28 26 22 21 22 24 23 23 20 16 14 12 9 6 4 5 5 6 8 9 8 6 7 8 12 13 11 9 6 9 11 8
42 41 47 57 53 51 51 48 46 42 37 32 28 24 23 27 28 27 24 21 18 14 11 8 6 5 4 3 5 7 7 7 5 6 8 10 12 10 10 8 6 9 12
46 48 40 56 56 54 52 51 46 42 39 35 31 26 26 24 23 23 21 20 17 13 11 10 8 6 4 5 5 7 5 4 2 2 3 5 10 13 13 11 10 11 13
43 44 37 50 56 53 54 53 50 45 41 37 32 28 28 25 22 21 21 20 18 15 13 11 10 8 9 10 10 9 8 6 1 3 3 4 10 14 16 14 11 12 12
45 42 46 50 59 55 55 55 53 49 42 38 32 27 26 26 25 20 21 21 20 18 16 15 13 12 13 13 14 12 14 9 5 6 8 8 10 14 16 14 10 14 11
54 52 51 55 56 56 53 54 53 51 44 40 34 28 32 29 27 25 20 20 20 19 19 17 15 13 14 11 13 15 15 14 13 10 13 14 13 14 15 15 11 11 9
59 57 51 55 58 59 56 49 50 52 49 40 39 32 36 33 35 30 25 27 23 19 19 16 15 13 12 14 15 16 17 17 15 15 18 16 15 13 13 13 11 7 11
49 62 53 60 70 63 60 51 45 46 46 44 41 35 35 38 39 33 29 26 24 20 18 14 15 15 13 15 15 16 19 19 18 16 17 17 18 15 13 12 10 6 16
44 65 64 65 65 65 64 53 45 45 44 43 37 33 33 35 39 36 31 29 25 24 22 20 19 19 20 20 21 20 18 20 24 22 22 26 24 21 17 13 12 9 24
43 60 75 72 71 70 65 57 51 46 49 45 43 39 36 33 32 31 30 29 27 24 23 22 23 22 22 22 22 25 25 26 24 21 26 28 34 25 22 16 14 17 21
40 50 68 79 77 71 59 62 55 51 47 48 38 37 36 32 35 37 32 29 26 25 23 24 28 25 27 28 28 28 24 27 29 31 38 37 33 29 27 20 19 21 20
32 49 65 73 79 69 62 59 55 57 51 41 38 37 34 33 32 33 32 29 28 25 28 32 31 28 30 24 24 28 27 32 37 41 45 41 37 33 30 21 25 25 25
35 42 53 78 68 66 61 59 68 70 63 51 42 37 34 31 29 28 32 33 33 35 30 34 34 35 33 27 29 36 37 44 48 49 44 42 38 32 30 24 26 27 30
35 42 53 70 79 75 70 62 63 66 67 58 51 45 41 39 37 33 29 29 32 34 35 35 39 39 36 31 41 44 44 37 44 48 49 37 34 35 32 28 27 29 34
13 13 21 79 70 68 69 56 52 49 44 55 57 53 49 43 45 40 36 34 34 35 40 41 41 42 45 46 48 48 25 28 39 37 41 35 35 37 35 32 32 33 37
38 31 12 39 68 66 62 58 51 50 57 52 53 52 46 47 45 42 41 41 42 39 39 39 41 43 46 45 54 62 67 51 16 11 18 20 23 24 29 32 35 37 39
59 53 47 47 49 60 52 55 49 41 41 40 49 47 51 41 34 33 33 33 32 37 36 35 28 10 2 3 6 4 9 15 14 19 4 15 19 22 23 28 34 23 28
59 65 51 65 63 49 45 45 38 29 35 34 37 38 39 37 36 36 31 30 25 18 22 27 18 22 18 13 10 13 4 6 4 12 6 16 19 22 28 28 28 22 28
Wind_Direction_850mb
174 180 171 171 168 167 166 164 161 155 149 149 146 147 148 146 149 162 180 183 164 161 131 122 110 111 111 110 108 105 100 99 98 91 87 80 70 78 74 62 63 63 60
183 182 175 172 170 169 166 167 163 156 153 155 158 157 158 155 160 162 161 158 152 144 123 117 112 114 109 107 106 104 100 97 95 91 87 76 65 67 75 73 69 65 65
187 181 177 173 171 169 168 167 164 160 161 160 161 164 160 157 156 155 151 150 147 132 128 122 119 113 110 108 107 107 105 102 98 87 75 75 66 57 69 70 73 69 63
191 183 177 173 173 171 169 169 167 165 167 163 163 159 159 156 152 155 144 149 141 140 135 129 124 120 116 111 106 102 103 108 106 104 87 59 66 56 67 69 71 63 56
198 185 179 175 174 175 171 172 170 167 172 167 173 165 171 165 156 156 147 135 143 140 138 131 128 123 117 110 106 104 107 113 112 104 90 95 53 53 57 50 50 49 40
191 185 181 179 176 177 177 175 171 170 171 171 182 187 208 200 171 164 164 155 147 146 134 134 131 125 119 114 112 108 112 116 108 91 68 66 48 38 29 12 19 29 14
187 182 181 182 180 179 175 171 174 178 176 177 182 210 224 217 179 157 160 157 153 150 141 143 138 130 121 114 102 99 112 117 104 89 59 64 45 28 27 5 340 2 354
205 182 183 181 183 179 173 171 176 181 180 188 201 221 224 212 183 164 165 166 165 156 156 154 147 132 118 111 112 110 113 122 117 84 44 55 34 17 359 6 357 345 348
213 199 182 181 181 180 176 177 178 181 193 204 214 220 221 199 172 175 173 178 181 180 177 176 166 144 148 134 112 117 121 130 113 74 70 40 21 10 1 17 339 347 346
209 216 197 185 182 182 181 183 184 192 198 208 216 212 214 192 181 182 186 189 190 195 195 197 192 189 174 145 138 137 138 137 134 106 68 32 8 356 349 338 315 331 337
206 209 205 194 187 185 186 186 192 198 204 209 211 210 204 201 198 199 195 193 196 203 211 212 209 205 197 193 162 158 171 175 166 102 62 4 355 355 347 341 325 323 324
213 205 205 207 195 190 192 194 196 201 205 211 209 210 204 201 198 211 209 205 208 211 217 222 220 214 215 210 198 181 183 210 206 233 286 323 349 346 340 335 324 323 325
236 226 232 207 203 197 197 198 201 201 206 209 214 211 201 195 200 203 203 207 212 218 223 225 222 221 223 223 223 209 213 226 217 256 286 301 315 328 330 325 311 299 314
235 234 230 206 207 208 205 206 209 207 208 212 216 214 197 190 205 217 221 224 224 228 227 225 229 229 238 239 237 238 241 241 240 248 262 281 291 308 326 317 306 302 246
230 230 229 212 205 208 207 209 216 218 210 213 225 217 198 198 205 226 237 225 224 223 224 228 238 249 248 243 244 242 238 240 236 245 257 267 280 290 307 301 293 286 226
237 222 225 215 205 203 207 208 210 215 214 220 224 223 210 207 215 224 230 231 234 230 228 235 249 249 252 249 248 257 259 252 247 257 260 273 275 274 288 272 266 242 187
250 231 217 210 212 203 204 205 213 211 217 216 218 225 226 217 215 223 225 227 229 228 227 232 243 246 255 262 264 265 262 258 256 245 253 258 272 267 278 264 251 222 198
248 238 219 211 202 201 205 208 211 203 217 212 224 237 227 223 219 225 232 230 227 225 221 231 236 241 246 246 253 255 257 261 256 249 246 252 264 265 270 253 221 206 217
257 243 216 211 204 203 210 213 213 215 208 222 224 233 231 224 221 228 234 234 228 221 224 248 248 248 251 255 265 264 253 255 254 247 247 248 247 256 258 240 216 210 234
255 246 222 198 208 209 208 207 212 204 206 205 219 224 231 231 232 233 234 232 224 220 235 241 252 251 259 264 259 262 255 248 244 245 244 248 249 246 244 243 211 221 241
264 250 239 208 207 207 210 205 201 202 206 205 213 220 225 238 244 245 245 241 234 232 237 243 251 256 252 255 261 269 260 255 248 247 248 247 249 249 238 235 219 228 242
292 246 206 196 204 209 216 210 207 203 208 213 214 228 226 230 240 243 254 253 247 242 242 247 253 255 252 259 266 269 262 250 239 242 246 234 247 233 221 221 224 234 236
355 187 199 188 199 201 209 209 206 205 208 220 222 222 225 233 239 236 248 245 247 236 243 251 257 255 261 261 257 256 248 234 219 207 207 232 211 217 218 221 226 242 228
46 67 55 189 192 201 205 205 205 204 204 214 217 222 230 233 236 232 231 241 246 248 250 255 258 259 265 277 274 268 257 242 240 140 169 197 218 209 225 228 237 232 250
55 62 49 98 158 194 197 194 196 204 218 220 223 227 234 222 226 233 235 235 246 250 250 256 256 190 35 88 311 111 139 31 52 86 278 257 232 233 235 246 253 229 233
62 60 56 63 81 95 144 162 185 191 189 207 213 213 214 215 228 227 229 237 243 211 212 238 233 249 271 291 296 264 318 115 106 106 314 250 249 246 249 243 250 255 269